Time,TemperatureF,DewpointF,PressureIn,WindDirection,WindDirectionDegrees,WindSpeedMPH,WindSpeedGustMPH,Humidity,HourlyPrecipIn,Conditions,Clouds,dailyrainin,SoftwareType,DateUTC
2013-01-24 00:03:00,58.1,52.7,30.31,South,180,7.0,13.0,82,0.00,,,0.00,meteohub,2013-01-24 06:03:00,
2013-01-24 00:08:00,57.7,52.3,30.31,South,186,6.0,13.0,82,0.00,,,0.00,meteohub,2013-01-24 06:08:00,
2013-01-24 00:13:00,57.7,52.7,30.31,South,188,12.0,13.0,83,0.00,,,0.00,meteohub,2013-01-24 06:13:00,
2013-01-24 00:19:00,57.7,52.7,30.31,South,171,8.0,12.0,83,0.00,,,0.00,meteohub,2013-01-24 06:19:00,
2013-01-24 00:24:00,57.9,53.1,30.32,South,190,7.0,12.0,84,0.00,,,0.00,meteohub,2013-01-24 06:24:00,
2013-01-24 00:29:00,58.3,53.4,30.32,South,191,8.0,12.0,84,0.00,,,0.00,meteohub,2013-01-24 06:29:00,
2013-01-24 00:34:00,58.3,53.4,30.32,South,190,6.0,14.0,84,0.00,,,0.00,meteohub,2013-01-24 06:34:00,
2013-01-24 00:39:00,58.5,53.6,30.32,SSW,196,6.0,14.0,84,0.00,,,0.00,meteohub,2013-01-24 06:39:00,
2013-01-24 00:44:00,58.6,53.8,30.32,South,186,7.0,14.0,84,0.00,,,0.00,meteohub,2013-01-24 06:44:00,
2013-01-24 00:49:00,58.6,53.8,30.32,SSE,158,4.0,13.0,84,0.00,,,0.00,meteohub,2013-01-24 06:49:00,
2013-01-24 00:54:00,58.6,53.8,30.32,SSW,202,9.0,13.0,84,0.00,,,0.00,meteohub,2013-01-24 06:54:00,
2013-01-24 00:59:00,58.5,53.2,30.32,SW,216,5.0,13.0,83,0.00,,,0.00,meteohub,2013-01-24 06:59:00,
2013-01-24 01:04:00,58.5,53.6,30.32,South,175,7.0,14.0,84,0.00,,,0.00,meteohub,2013-01-24 07:04:00,
2013-01-24 01:09:00,58.1,53.2,30.31,South,190,7.0,14.0,84,0.00,,,0.00,meteohub,2013-01-24 07:09:00,
2013-01-24 01:14:00,57.9,53.1,30.31,South,176,8.0,14.0,84,0.00,,,0.00,meteohub,2013-01-24 07:14:00,
2013-01-24 01:19:00,57.7,53.2,30.31,SSE,163,8.0,12.0,85,0.00,,,0.00,meteohub,2013-01-24 07:19:00,
2013-01-24 01:24:00,57.7,53.2,30.31,South,176,10.0,12.0,85,0.00,,,0.00,meteohub,2013-01-24 07:24:00,
2013-01-24 01:29:00,57.6,52.7,30.31,South,173,4.0,12.0,84,0.00,,,0.00,meteohub,2013-01-24 07:29:00,
2013-01-24 01:34:00,57.4,52.9,30.31,South,180,2.0,12.0,85,0.00,,,0.00,meteohub,2013-01-24 07:34:00,
2013-01-24 01:39:00,57.4,53.2,30.32,South,170,7.0,12.0,86,0.00,,,0.00,meteohub,2013-01-24 07:39:00,
2013-01-24 01:44:00,57.7,53.2,30.31,SSE,164,7.0,15.0,85,0.00,,,0.00,meteohub,2013-01-24 07:44:00,
2013-01-24 01:49:00,57.6,53.1,30.31,South,169,6.0,15.0,85,0.00,,,0.00,meteohub,2013-01-24 07:49:00,
2013-01-24 01:54:00,57.4,52.9,30.31,SSE,160,3.0,15.0,85,0.00,,,0.00,meteohub,2013-01-24 07:54:00,
2013-01-24 01:59:00,57.4,53.2,30.31,SSW,202,7.0,12.0,86,0.00,,,0.00,meteohub,2013-01-24 07:59:00,
2013-01-24 02:04:00,57.4,53.2,30.31,SSE,168,3.0,12.0,86,0.00,,,0.00,meteohub,2013-01-24 08:04:00,
2013-01-24 02:09:00,57.4,53.2,30.31,South,175,6.0,12.0,86,0.00,,,0.00,meteohub,2013-01-24 08:09:00,
2013-01-24 02:14:00,57.0,52.9,30.31,South,180,3.0,12.0,86,0.00,,,0.00,meteohub,2013-01-24 08:14:00,
2013-01-24 02:19:00,56.8,52.7,30.31,South,174,4.0,11.0,86,0.00,,,0.00,meteohub,2013-01-24 08:19:00,
2013-01-24 02:24:00,56.7,52.5,30.31,South,174,5.0,10.0,86,0.00,,,0.00,meteohub,2013-01-24 08:24:00,
2013-01-24 02:29:00,56.5,52.7,30.31,South,174,5.0,9.0,87,0.00,,,0.00,meteohub,2013-01-24 08:29:00,
2013-01-24 02:34:00,56.3,52.5,30.31,SSE,167,4.0,9.0,87,0.00,,,0.00,meteohub,2013-01-24 08:34:00,
2013-01-24 02:39:00,56.3,52.9,30.31,SSE,163,5.0,10.0,88,0.00,,,0.00,meteohub,2013-01-24 08:39:00,
2013-01-24 02:44:00,56.5,52.9,30.31,SSE,155,1.0,10.0,88,0.00,,,0.00,meteohub,2013-01-24 08:44:00,
2013-01-24 02:49:00,56.7,53.1,30.31,SSE,158,4.0,10.0,88,0.00,,,0.00,meteohub,2013-01-24 08:49:00,
2013-01-24 02:54:00,56.8,53.1,30.30,SSE,155,6.0,12.0,87,0.00,,,0.00,meteohub,2013-01-24 08:54:00,
2013-01-24 02:59:00,56.8,53.2,30.30,SSE,164,3.0,12.0,88,0.00,,,0.00,meteohub,2013-01-24 08:59:00,
2013-01-24 03:04:00,56.7,53.1,30.31,South,187,4.0,12.0,88,0.00,,,0.00,meteohub,2013-01-24 09:04:00,
2013-01-24 03:10:00,56.8,53.2,30.30,SSW,194,10.0,12.0,88,0.00,,,0.00,meteohub,2013-01-24 09:10:00,
2013-01-24 03:15:00,56.7,52.9,30.30,SSW,205,3.0,12.0,87,0.00,,,0.00,meteohub,2013-01-24 09:15:00,
2013-01-24 03:20:00,56.7,53.1,30.30,South,169,7.0,12.0,88,0.00,,,0.00,meteohub,2013-01-24 09:20:00,
2013-01-24 03:25:00,56.7,53.1,30.30,South,184,4.0,11.0,88,0.00,,,0.00,meteohub,2013-01-24 09:25:00,
2013-01-24 03:30:00,56.5,52.9,30.30,South,185,10.0,13.0,88,0.00,,,0.00,meteohub,2013-01-24 09:30:00,
2013-01-24 03:35:00,56.7,53.4,30.30,South,190,7.0,13.0,89,0.00,,,0.00,meteohub,2013-01-24 09:35:00,
2013-01-24 03:40:00,57.0,53.4,30.30,SSE,154,4.0,13.0,88,0.00,,,0.00,meteohub,2013-01-24 09:40:00,
2013-01-24 03:45:00,57.4,53.8,30.30,South,173,1.0,13.0,88,0.00,,,0.00,meteohub,2013-01-24 09:45:00,
2013-01-24 03:50:00,55.9,51.8,30.30,SSW,192,1.0,13.0,86,0.00,,,0.00,meteohub,2013-01-24 09:50:00,
2013-01-24 03:55:00,54.9,51.6,30.30,SE,143,0.0,13.0,89,0.00,,,0.00,meteohub,2013-01-24 09:55:00,
2013-01-24 04:00:00,54.1,50.9,30.31,SE,143,0.0,9.0,89,0.00,,,0.00,meteohub,2013-01-24 10:00:00,
2013-01-24 04:05:00,54.0,51.4,30.31,SE,143,0.0,7.0,91,0.00,,,0.00,meteohub,2013-01-24 10:05:00,
2013-01-24 04:10:00,54.1,51.6,30.30,SE,143,0.0,5.0,91,0.00,,,0.00,meteohub,2013-01-24 10:10:00,
2013-01-24 04:15:00,54.3,52.0,30.30,SE,143,0.0,2.0,92,0.00,,,0.00,meteohub,2013-01-24 10:15:00,
2013-01-24 04:20:00,55.6,53.2,30.30,SSW,195,5.0,5.0,92,0.00,,,0.00,meteohub,2013-01-24 10:20:00,
2013-01-24 04:25:00,56.3,54.0,30.30,SSW,193,5.0,9.0,92,0.00,,,0.00,meteohub,2013-01-24 10:25:00,
2013-01-24 04:30:00,56.1,53.2,30.31,SSW,207,1.0,9.0,90,0.00,,,0.00,meteohub,2013-01-24 10:30:00,
2013-01-24 04:35:00,54.5,51.3,30.31,SSW,207,0.0,9.0,89,0.00,,,0.00,meteohub,2013-01-24 10:35:00,
2013-01-24 04:40:00,54.0,51.4,30.31,SSW,207,0.0,6.0,91,0.00,,,0.00,meteohub,2013-01-24 10:40:00,
2013-01-24 04:45:00,53.8,51.3,30.31,SSW,207,0.0,2.0,91,0.00,,,0.00,meteohub,2013-01-24 10:45:00,
2013-01-24 04:50:00,53.8,51.4,30.31,SSW,207,0.0,2.0,92,0.00,,,0.00,meteohub,2013-01-24 10:50:00,
2013-01-24 04:55:00,53.8,51.4,30.31,SSW,207,0.0,1.0,92,0.00,,,0.00,meteohub,2013-01-24 10:55:00,
2013-01-24 05:00:00,54.0,52.0,30.32,SSW,207,0.0,2.0,93,0.00,,,0.00,meteohub,2013-01-24 11:00:00,
2013-01-24 05:05:00,53.4,51.1,30.32,SSW,207,0.0,2.0,92,0.00,,,0.00,meteohub,2013-01-24 11:05:00,
2013-01-24 05:10:00,53.8,51.8,30.32,SSW,207,1.0,2.0,93,0.00,,,0.00,meteohub,2013-01-24 11:10:00,
2013-01-24 05:15:00,53.4,51.4,30.32,SSW,207,0.0,1.0,93,0.00,,,0.00,meteohub,2013-01-24 11:15:00,
2013-01-24 05:20:00,54.0,52.0,30.32,SSW,207,0.0,1.0,93,0.00,,,0.00,meteohub,2013-01-24 11:20:00,
2013-01-24 05:25:00,54.1,52.2,30.32,SSW,207,0.0,1.0,93,0.00,,,0.00,meteohub,2013-01-24 11:25:00,
2013-01-24 05:30:00,54.3,52.3,30.32,SSW,207,0.0,2.0,93,0.00,,,0.00,meteohub,2013-01-24 11:30:00,
2013-01-24 05:35:00,54.1,52.2,30.32,SSW,207,0.0,2.0,93,0.00,,,0.00,meteohub,2013-01-24 11:35:00,
2013-01-24 05:41:00,54.0,52.0,30.32,SSW,207,0.0,2.0,93,0.00,,,0.00,meteohub,2013-01-24 11:41:00,
2013-01-24 05:46:00,53.4,51.1,30.32,SSW,207,0.0,2.0,92,0.00,,,0.00,meteohub,2013-01-24 11:46:00,
2013-01-24 05:51:00,52.9,50.5,30.32,SSW,207,0.0,2.0,92,0.00,,,0.00,meteohub,2013-01-24 11:51:00,
2013-01-24 05:56:00,52.9,50.9,30.32,SSW,207,0.0,1.0,93,0.00,,,0.00,meteohub,2013-01-24 11:56:00,
2013-01-24 06:01:00,52.9,51.3,30.33,SSW,207,0.0,1.0,94,0.00,,,0.00,meteohub,2013-01-24 12:01:00,
2013-01-24 06:06:00,53.1,51.4,30.33,SSW,207,0.0,1.0,94,0.00,,,0.00,meteohub,2013-01-24 12:06:00,
2013-01-24 06:11:00,52.9,51.3,30.33,SSW,207,0.0,1.0,94,0.00,,,0.00,meteohub,2013-01-24 12:11:00,
2013-01-24 06:16:00,52.9,51.3,30.34,SSW,207,0.0,1.0,94,0.00,,,0.00,meteohub,2013-01-24 12:16:00,
2013-01-24 06:21:00,53.2,51.6,30.34,SSW,207,0.0,1.0,94,0.00,,,0.00,meteohub,2013-01-24 12:21:00,
2013-01-24 06:26:00,53.2,51.6,30.34,SSW,207,1.0,2.0,94,0.00,,,0.00,meteohub,2013-01-24 12:26:00,
2013-01-24 06:31:00,53.2,51.6,30.34,SSW,207,0.0,2.0,94,0.00,,,0.00,meteohub,2013-01-24 12:31:00,
2013-01-24 06:36:00,53.2,51.6,30.35,SSW,207,0.0,2.0,94,0.00,,,0.00,meteohub,2013-01-24 12:36:00,
2013-01-24 06:41:00,53.1,51.4,30.34,SSW,207,1.0,2.0,94,0.00,,,0.00,meteohub,2013-01-24 12:41:00,
2013-01-24 06:46:00,53.4,52.0,30.35,SSW,207,0.0,2.0,95,0.00,,,0.00,meteohub,2013-01-24 12:46:00,
2013-01-24 06:51:00,53.6,52.0,30.35,SSW,207,1.0,2.0,94,0.00,,,0.00,meteohub,2013-01-24 12:51:00,
2013-01-24 06:56:00,54.0,52.5,30.35,SSW,207,0.0,2.0,95,0.00,,,0.00,meteohub,2013-01-24 12:56:00,
2013-01-24 07:01:00,54.1,52.7,30.35,SSW,207,1.0,2.0,95,0.00,,,0.00,meteohub,2013-01-24 13:01:00,
2013-01-24 07:06:00,54.1,52.5,30.35,SSW,207,0.0,1.0,94,0.00,,,0.00,meteohub,2013-01-24 13:06:00,
2013-01-24 07:11:00,54.1,52.5,30.35,SSW,207,0.0,1.0,94,0.00,,,0.00,meteohub,2013-01-24 13:11:00,
2013-01-24 07:16:00,54.1,52.5,30.35,SSW,207,0.0,1.0,94,0.00,,,0.00,meteohub,2013-01-24 13:16:00,
2013-01-24 07:21:00,54.7,53.1,30.35,SSW,207,0.0,1.0,94,0.00,,,0.00,meteohub,2013-01-24 13:21:00,
2013-01-24 07:26:00,54.9,53.2,30.34,SSW,207,0.0,1.0,94,0.00,,,0.00,meteohub,2013-01-24 13:26:00,
2013-01-24 07:31:00,55.8,54.1,30.35,SSW,207,0.0,3.0,94,0.00,,,0.00,meteohub,2013-01-24 13:31:00,
2013-01-24 07:36:00,55.2,53.2,30.35,SSW,207,2.0,3.0,93,0.00,,,0.00,meteohub,2013-01-24 13:36:00,
2013-01-24 07:41:00,55.0,53.1,30.35,SSW,207,0.0,3.0,93,0.00,,,0.00,meteohub,2013-01-24 13:41:00,
2013-01-24 07:46:00,55.8,54.1,30.35,South,171,1.0,6.0,94,0.00,,,0.00,meteohub,2013-01-24 13:46:00,
2013-01-24 07:51:00,55.8,53.4,30.35,South,171,0.0,6.0,92,0.00,,,0.00,meteohub,2013-01-24 13:51:00,
2013-01-24 07:56:00,55.4,53.1,30.35,South,171,0.0,6.0,92,0.00,,,0.00,meteohub,2013-01-24 13:56:00,
2013-01-24 08:01:00,56.7,55.0,30.35,SSW,202,0.0,6.0,94,0.00,,,0.00,meteohub,2013-01-24 14:01:00,
2013-01-24 08:06:00,57.9,55.6,30.35,South,178,1.0,6.0,92,0.00,,,0.00,meteohub,2013-01-24 14:06:00,
2013-01-24 08:11:00,58.8,55.9,30.35,South,188,8.0,8.0,90,0.00,,,0.00,meteohub,2013-01-24 14:11:00,
2013-01-24 08:16:00,59.4,56.1,30.35,South,175,5.0,9.0,89,0.00,,,0.00,meteohub,2013-01-24 14:16:00,
2013-01-24 08:21:00,59.9,56.3,30.35,South,178,6.0,11.0,88,0.00,,,0.00,meteohub,2013-01-24 14:21:00,
2013-01-24 08:26:00,60.3,56.3,30.35,South,184,11.0,12.0,87,0.00,,,0.00,meteohub,2013-01-24 14:26:00,
2013-01-24 08:31:00,60.6,56.5,30.35,SSW,198,7.0,13.0,86,0.00,,,0.00,meteohub,2013-01-24 14:31:00,
2013-01-24 08:36:00,60.6,56.1,30.35,South,169,9.0,13.0,85,0.00,,,0.00,meteohub,2013-01-24 14:36:00,
2013-01-24 08:41:00,61.2,57.0,30.36,South,189,5.0,13.0,86,0.00,,,0.00,meteohub,2013-01-24 14:41:00,
2013-01-24 08:46:00,61.3,56.8,30.36,South,178,10.0,12.0,85,0.00,,,0.00,meteohub,2013-01-24 14:46:00,
2013-01-24 08:51:00,61.7,56.8,30.36,SSW,207,6.0,11.0,84,0.00,,,0.00,meteohub,2013-01-24 14:51:00,
2013-01-24 08:56:00,62.2,57.0,30.36,South,188,3.0,11.0,83,0.00,,,0.00,meteohub,2013-01-24 14:56:00,
2013-01-24 09:01:00,62.8,57.6,30.36,South,184,3.0,11.0,83,0.00,,,0.00,meteohub,2013-01-24 15:01:00,
2013-01-24 09:07:00,63.1,57.6,30.36,SW,224,4.0,8.0,82,0.00,,,0.00,meteohub,2013-01-24 15:07:00,
2013-01-24 09:12:00,63.7,57.4,30.36,South,183,5.0,8.0,80,0.00,,,0.00,meteohub,2013-01-24 15:12:00,
2013-01-24 09:17:00,63.9,57.6,30.36,South,187,2.0,10.0,80,0.00,,,0.00,meteohub,2013-01-24 15:17:00,
2013-01-24 09:22:00,63.9,56.8,30.36,SSW,198,7.0,13.0,78,0.00,,,0.00,meteohub,2013-01-24 15:22:00,
2013-01-24 09:27:00,64.0,57.0,30.36,South,186,6.0,13.0,78,0.00,,,0.00,meteohub,2013-01-24 15:27:00,
2013-01-24 09:32:00,64.0,57.4,30.37,SE,145,5.0,13.0,79,0.00,,,0.00,meteohub,2013-01-24 15:32:00,
2013-01-24 09:37:00,64.6,57.6,30.37,SSW,192,8.0,11.0,78,0.00,,,0.00,meteohub,2013-01-24 15:37:00,
2013-01-24 09:42:00,64.9,57.6,30.37,South,186,1.0,10.0,77,0.00,,,0.00,meteohub,2013-01-24 15:42:00,
2013-01-24 09:47:00,65.3,57.6,30.37,SW,219,4.0,10.0,76,0.00,,,0.00,meteohub,2013-01-24 15:47:00,
2013-01-24 09:52:00,65.7,57.6,30.36,SW,231,8.0,10.0,75,0.00,,,0.00,meteohub,2013-01-24 15:52:00,
2013-01-24 09:57:00,65.7,57.6,30.36,WSW,250,8.0,11.0,75,0.00,,,0.00,meteohub,2013-01-24 15:57:00,
2013-01-24 10:02:00,66.0,57.9,30.36,WSW,252,9.0,15.0,75,0.00,,,0.00,meteohub,2013-01-24 16:02:00,
2013-01-24 10:07:00,66.4,57.9,30.36,WSW,251,10.0,15.0,74,0.00,,,0.00,meteohub,2013-01-24 16:07:00,
2013-01-24 10:12:00,66.4,57.9,30.36,WSW,248,11.0,15.0,74,0.00,,,0.00,meteohub,2013-01-24 16:12:00,
2013-01-24 10:17:00,66.6,57.6,30.36,WSW,244,14.0,15.0,73,0.00,,,0.00,meteohub,2013-01-24 16:17:00,
2013-01-24 10:22:00,67.1,58.1,30.36,WSW,240,10.0,15.0,73,0.00,,,0.00,meteohub,2013-01-24 16:22:00,
2013-01-24 10:27:00,67.6,58.3,30.35,West,259,10.0,15.0,72,0.00,,,0.00,meteohub,2013-01-24 16:27:00,
2013-01-24 10:32:00,68.0,58.3,30.35,SW,232,7.0,14.0,71,0.00,,,0.00,meteohub,2013-01-24 16:32:00,
2013-01-24 10:37:00,68.5,57.9,30.35,WSW,240,11.0,13.0,69,0.00,,,0.00,meteohub,2013-01-24 16:37:00,
2013-01-24 10:42:00,68.5,57.9,30.35,WSW,248,10.0,15.0,69,0.00,,,0.00,meteohub,2013-01-24 16:42:00,
2013-01-24 10:47:00,68.9,57.9,30.35,WSW,250,5.0,15.0,68,0.00,,,0.00,meteohub,2013-01-24 16:47:00,
2013-01-24 10:52:00,68.7,57.7,30.35,WSW,241,10.0,15.0,68,0.00,,,0.00,meteohub,2013-01-24 16:52:00,
2013-01-24 10:57:00,68.7,57.7,30.35,SW,235,7.0,15.0,68,0.00,,,0.00,meteohub,2013-01-24 16:57:00,
2013-01-24 11:02:00,69.1,58.1,30.35,WSW,254,6.0,15.0,68,0.00,,,0.00,meteohub,2013-01-24 17:02:00,
2013-01-24 11:07:00,68.7,58.1,30.35,West,261,10.0,14.0,69,0.00,,,0.00,meteohub,2013-01-24 17:07:00,
2013-01-24 11:12:00,68.7,58.5,30.35,West,263,9.0,14.0,70,0.00,,,0.00,meteohub,2013-01-24 17:12:00,
2013-01-24 11:17:00,69.4,58.5,30.35,West,268,10.0,14.0,68,0.00,,,0.00,meteohub,2013-01-24 17:17:00,
2013-01-24 11:22:00,68.7,57.7,30.35,West,274,7.0,14.0,68,0.00,,,0.00,meteohub,2013-01-24 17:22:00,
2013-01-24 11:27:00,68.9,58.6,30.35,West,263,5.0,14.0,70,0.00,,,0.00,meteohub,2013-01-24 17:27:00,
2013-01-24 11:32:00,69.1,58.5,30.35,WSW,238,7.0,14.0,69,0.00,,,0.00,meteohub,2013-01-24 17:32:00,
2013-01-24 11:37:00,68.7,58.1,30.34,WSW,247,9.0,10.0,69,0.00,,,0.00,meteohub,2013-01-24 17:37:00,
2013-01-24 11:42:00,69.1,58.5,30.34,WSW,246,4.0,10.0,69,0.00,,,0.00,meteohub,2013-01-24 17:42:00,
2013-01-24 11:47:00,69.4,58.5,30.34,SW,235,5.0,10.0,68,0.00,,,0.00,meteohub,2013-01-24 17:47:00,
2013-01-24 11:52:00,69.3,58.6,30.34,West,264,8.0,10.0,69,0.00,,,0.00,meteohub,2013-01-24 17:52:00,
2013-01-24 11:57:00,69.4,58.5,30.33,West,264,6.0,9.0,68,0.00,,,0.00,meteohub,2013-01-24 17:57:00,
2013-01-24 12:02:00,69.6,58.6,30.33,West,269,7.0,10.0,68,0.00,,,0.00,meteohub,2013-01-24 18:02:00,
2013-01-24 12:07:00,70.2,59.2,30.32,West,269,5.0,10.0,68,0.00,,,0.00,meteohub,2013-01-24 18:07:00,
2013-01-24 12:12:00,70.3,58.5,30.32,WSW,246,6.0,10.0,66,0.00,,,0.00,meteohub,2013-01-24 18:12:00,
2013-01-24 12:17:00,70.3,58.8,30.31,West,263,5.0,10.0,67,0.00,,,0.00,meteohub,2013-01-24 18:17:00,
2013-01-24 12:22:00,70.0,58.5,30.31,SW,234,5.0,11.0,67,0.00,,,0.00,meteohub,2013-01-24 18:22:00,
2013-01-24 12:27:00,70.0,58.5,30.30,WSW,248,3.0,11.0,67,0.00,,,0.00,meteohub,2013-01-24 18:27:00,
2013-01-24 12:32:00,70.2,58.6,30.30,SW,227,2.0,11.0,67,0.00,,,0.00,meteohub,2013-01-24 18:32:00,
2013-01-24 12:37:00,70.5,59.0,30.30,West,262,9.0,14.0,67,0.00,,,0.00,meteohub,2013-01-24 18:37:00,
2013-01-24 12:42:00,70.3,58.5,30.30,WSW,240,6.0,14.0,66,0.00,,,0.00,meteohub,2013-01-24 18:42:00,
2013-01-24 12:47:00,70.5,59.0,30.29,WSW,247,4.0,14.0,67,0.00,,,0.00,meteohub,2013-01-24 18:47:00,
2013-01-24 12:52:00,71.1,59.2,30.29,WSW,257,7.0,12.0,66,0.00,,,0.00,meteohub,2013-01-24 18:52:00,
2013-01-24 12:57:00,70.5,58.6,30.29,WSW,246,8.0,10.0,66,0.00,,,0.00,meteohub,2013-01-24 18:57:00,
2013-01-24 13:02:00,71.1,59.2,30.28,WSW,257,8.0,12.0,66,0.00,,,0.00,meteohub,2013-01-24 19:02:00,
2013-01-24 13:07:00,71.1,59.2,30.28,West,268,6.0,12.0,66,0.00,,,0.00,meteohub,2013-01-24 19:07:00,
2013-01-24 13:12:00,71.1,59.2,30.28,SW,231,9.0,12.0,66,0.00,,,0.00,meteohub,2013-01-24 19:12:00,
2013-01-24 13:17:00,70.7,58.8,30.28,West,277,6.0,12.0,66,0.00,,,0.00,meteohub,2013-01-24 19:17:00,
2013-01-24 13:22:00,71.1,59.2,30.28,WNW,288,9.0,12.0,66,0.00,,,0.00,meteohub,2013-01-24 19:22:00,
2013-01-24 13:27:00,71.2,59.7,30.28,West,268,4.0,12.0,67,0.00,,,0.00,meteohub,2013-01-24 19:27:00,
2013-01-24 13:32:00,71.2,59.4,30.27,West,276,8.0,11.0,66,0.00,,,0.00,meteohub,2013-01-24 19:32:00,
2013-01-24 13:37:00,71.2,58.8,30.27,WSW,258,7.0,11.0,65,0.00,,,0.00,meteohub,2013-01-24 19:37:00,
2013-01-24 13:42:00,71.1,59.2,30.27,WSW,252,5.0,11.0,66,0.00,,,0.00,meteohub,2013-01-24 19:42:00,
2013-01-24 13:47:00,70.9,59.0,30.27,West,263,6.0,11.0,66,0.00,,,0.00,meteohub,2013-01-24 19:47:00,
2013-01-24 13:52:00,71.1,59.5,30.27,WSW,248,4.0,11.0,67,0.00,,,0.00,meteohub,2013-01-24 19:52:00,
2013-01-24 13:57:00,71.1,59.2,30.27,WSW,256,8.0,10.0,66,0.00,,,0.00,meteohub,2013-01-24 19:57:00,
2013-01-24 14:02:00,70.9,59.0,30.27,WSW,256,4.0,13.0,66,0.00,,,0.00,meteohub,2013-01-24 20:02:00,
2013-01-24 14:07:00,70.9,59.0,30.26,WSW,248,7.0,13.0,66,0.00,,,0.00,meteohub,2013-01-24 20:07:00,
2013-01-24 14:12:00,70.7,58.8,30.26,WSW,248,4.0,13.0,66,0.00,,,0.00,meteohub,2013-01-24 20:12:00,
2013-01-24 14:17:00,70.9,59.0,30.26,WSW,256,6.0,9.0,66,0.00,,,0.00,meteohub,2013-01-24 20:17:00,
2013-01-24 14:22:00,70.9,58.5,30.26,WSW,254,5.0,9.0,65,0.00,,,0.00,meteohub,2013-01-24 20:22:00,
2013-01-24 14:27:00,70.9,59.0,30.25,West,259,6.0,9.0,66,0.00,,,0.00,meteohub,2013-01-24 20:27:00,
2013-01-24 14:32:00,70.9,59.0,30.25,West,259,5.0,9.0,66,0.00,,,0.00,meteohub,2013-01-24 20:32:00,
2013-01-24 14:37:00,70.9,59.0,30.25,WSW,258,1.0,8.0,66,0.00,,,0.00,meteohub,2013-01-24 20:37:00,
2013-01-24 14:42:00,71.2,58.8,30.25,WSW,246,6.0,10.0,65,0.00,,,0.00,meteohub,2013-01-24 20:42:00,
2013-01-24 14:47:00,71.4,58.6,30.25,WSW,240,7.0,11.0,64,0.00,,,0.00,meteohub,2013-01-24 20:47:00,
2013-01-24 14:52:00,71.6,59.2,30.25,WSW,240,8.0,11.0,65,0.00,,,0.00,meteohub,2013-01-24 20:52:00,
2013-01-24 14:57:00,71.4,59.0,30.25,WSW,247,7.0,11.0,65,0.00,,,0.00,meteohub,2013-01-24 20:57:00,
2013-01-24 15:02:00,71.2,57.9,30.25,WSW,241,9.0,12.0,63,0.00,,,0.00,meteohub,2013-01-24 21:02:00,
2013-01-24 15:07:00,71.2,58.5,30.24,SW,223,6.0,12.0,64,0.00,,,0.00,meteohub,2013-01-24 21:07:00,
2013-01-24 15:12:00,71.4,58.6,30.24,WSW,240,5.0,12.0,64,0.00,,,0.00,meteohub,2013-01-24 21:12:00,
2013-01-24 15:17:00,71.8,59.0,30.24,SW,233,6.0,11.0,64,0.00,,,0.00,meteohub,2013-01-24 21:17:00,
2013-01-24 15:22:00,72.0,59.5,30.24,SSW,199,8.0,15.0,65,0.00,,,0.00,meteohub,2013-01-24 21:22:00,
2013-01-24 15:27:00,71.8,59.0,30.24,SW,232,7.0,15.0,64,0.00,,,0.00,meteohub,2013-01-24 21:27:00,
2013-01-24 15:32:00,72.0,59.5,30.24,SSW,205,6.0,15.0,65,0.00,,,0.00,meteohub,2013-01-24 21:32:00,
2013-01-24 15:37:00,71.8,59.0,30.24,SSE,160,5.0,14.0,64,0.00,,,0.00,meteohub,2013-01-24 21:37:00,
2013-01-24 15:42:00,71.8,59.4,30.24,SE,145,5.0,14.0,65,0.00,,,0.00,meteohub,2013-01-24 21:42:00,
2013-01-24 15:47:00,71.6,58.8,30.24,South,171,3.0,14.0,64,0.00,,,0.00,meteohub,2013-01-24 21:47:00,
2013-01-24 15:52:00,71.8,59.0,30.24,South,174,1.0,12.0,64,0.00,,,0.00,meteohub,2013-01-24 21:52:00,
2013-01-24 15:57:00,71.8,59.0,30.25,WSW,245,7.0,13.0,64,0.00,,,0.00,meteohub,2013-01-24 21:57:00,
2013-01-24 16:02:00,71.2,58.5,30.25,WSW,246,5.0,13.0,64,0.00,,,0.00,meteohub,2013-01-24 22:02:00,
2013-01-24 16:07:00,71.8,59.0,30.25,WSW,247,4.0,13.0,64,0.00,,,0.00,meteohub,2013-01-24 22:07:00,
2013-01-24 16:12:00,71.2,57.9,30.25,WSW,250,9.0,12.0,63,0.00,,,0.00,meteohub,2013-01-24 22:12:00,
2013-01-24 16:17:00,71.2,58.5,30.25,WSW,245,8.0,14.0,64,0.00,,,0.00,meteohub,2013-01-24 22:17:00,
2013-01-24 16:22:00,71.2,58.5,30.25,WSW,239,10.0,14.0,64,0.00,,,0.00,meteohub,2013-01-24 22:22:00,
2013-01-24 16:27:00,70.9,58.5,30.25,WSW,252,9.0,15.0,65,0.00,,,0.00,meteohub,2013-01-24 22:27:00,
2013-01-24 16:32:00,70.9,59.0,30.25,WSW,242,9.0,15.0,66,0.00,,,0.00,meteohub,2013-01-24 22:32:00,
2013-01-24 16:37:00,70.9,59.0,30.24,WSW,237,6.0,15.0,66,0.00,,,0.00,meteohub,2013-01-24 22:37:00,
2013-01-24 16:42:00,70.9,59.4,30.24,WSW,246,12.0,12.0,67,0.00,,,0.00,meteohub,2013-01-24 22:42:00,
2013-01-24 16:47:00,70.5,58.6,30.25,WSW,239,9.0,13.0,66,0.00,,,0.00,meteohub,2013-01-24 22:47:00,
2013-01-24 16:52:00,70.3,58.8,30.25,WSW,241,12.0,14.0,67,0.00,,,0.00,meteohub,2013-01-24 22:52:00,
2013-01-24 16:57:00,70.2,58.6,30.24,WSW,244,9.0,16.0,67,0.00,,,0.00,meteohub,2013-01-24 22:57:00,
2013-01-24 17:02:00,70.0,59.0,30.25,WSW,237,11.0,16.0,68,0.00,,,0.00,meteohub,2013-01-24 23:02:00,
2013-01-24 17:07:00,69.6,58.6,30.25,SW,223,9.0,16.0,68,0.00,,,0.00,meteohub,2013-01-24 23:07:00,
2013-01-24 17:12:00,69.4,58.8,30.25,WSW,248,15.0,15.0,69,0.00,,,0.00,meteohub,2013-01-24 23:12:00,
2013-01-24 17:17:00,69.3,58.6,30.25,SW,229,15.0,16.0,69,0.00,,,0.00,meteohub,2013-01-24 23:17:00,
2013-01-24 17:22:00,69.3,58.6,30.24,WSW,242,9.0,17.0,69,0.00,,,0.00,meteohub,2013-01-24 23:22:00,
2013-01-24 17:27:00,69.1,58.5,30.24,WSW,246,12.0,17.0,69,0.00,,,0.00,meteohub,2013-01-24 23:27:00,
2013-01-24 17:32:00,68.7,58.5,30.24,WSW,237,12.0,17.0,70,0.00,,,0.00,meteohub,2013-01-24 23:32:00,
2013-01-24 17:37:00,68.5,58.3,30.24,SW,236,8.0,16.0,70,0.00,,,0.00,meteohub,2013-01-24 23:37:00,
2013-01-24 17:42:00,68.4,58.6,30.24,WSW,247,11.0,16.0,71,0.00,,,0.00,meteohub,2013-01-24 23:42:00,
2013-01-24 17:47:00,68.2,58.5,30.25,West,263,10.0,15.0,71,0.00,,,0.00,meteohub,2013-01-24 23:47:00,
2013-01-24 17:52:00,68.2,58.5,30.25,WSW,242,10.0,15.0,71,0.00,,,0.00,meteohub,2013-01-24 23:52:00,
2013-01-24 17:57:00,68.0,58.3,30.25,WSW,250,9.0,15.0,71,0.00,,,0.00,meteohub,2013-01-24 23:57:00,
2013-01-24 18:02:00,67.8,58.1,30.25,WSW,248,10.0,15.0,71,0.00,,,0.00,meteohub,2013-01-25 00:02:00,
2013-01-24 18:07:00,67.6,58.3,30.25,WSW,249,10.0,15.0,72,0.00,,,0.00,meteohub,2013-01-25 00:07:00,
2013-01-24 18:12:00,67.6,58.3,30.26,WSW,239,11.0,15.0,72,0.00,,,0.00,meteohub,2013-01-25 00:12:00,
2013-01-24 18:17:00,67.5,58.1,30.26,WSW,245,11.0,15.0,72,0.00,,,0.00,meteohub,2013-01-25 00:17:00,
2013-01-24 18:23:00,67.3,57.9,30.26,WSW,246,7.0,15.0,72,0.00,,,0.00,meteohub,2013-01-25 00:23:00,
2013-01-24 18:28:00,66.9,57.9,30.26,WSW,248,8.0,15.0,73,0.00,,,0.00,meteohub,2013-01-25 00:28:00,
2013-01-24 18:33:00,66.7,57.7,30.26,WSW,251,5.0,13.0,73,0.00,,,0.00,meteohub,2013-01-25 00:33:00,
2013-01-24 18:38:00,66.4,57.9,30.26,WSW,248,5.0,13.0,74,0.00,,,0.00,meteohub,2013-01-25 00:38:00,
2013-01-24 18:43:00,66.0,57.6,30.27,WSW,254,5.0,11.0,74,0.00,,,0.00,meteohub,2013-01-25 00:43:00,
2013-01-24 18:48:00,65.7,57.6,30.27,WSW,247,4.0,11.0,75,0.00,,,0.00,meteohub,2013-01-25 00:48:00,
2013-01-24 18:53:00,65.5,57.7,30.27,WSW,250,4.0,9.0,76,0.00,,,0.00,meteohub,2013-01-25 00:53:00,
2013-01-24 18:58:00,65.1,57.4,30.27,WSW,249,4.0,8.0,76,0.00,,,0.00,meteohub,2013-01-25 00:58:00,
2013-01-24 19:03:00,65.1,57.4,30.27,WSW,248,4.0,8.0,76,0.00,,,0.00,meteohub,2013-01-25 01:03:00,
2013-01-24 19:08:00,65.1,57.4,30.27,WSW,249,6.0,8.0,76,0.00,,,0.00,meteohub,2013-01-25 01:08:00,
2013-01-24 19:13:00,65.1,57.4,30.27,WSW,242,7.0,9.0,76,0.00,,,0.00,meteohub,2013-01-25 01:13:00,
2013-01-24 19:18:00,65.5,57.7,30.27,WSW,250,6.0,10.0,76,0.00,,,0.00,meteohub,2013-01-25 01:18:00,
2013-01-24 19:23:00,65.7,57.6,30.27,WSW,246,7.0,10.0,75,0.00,,,0.00,meteohub,2013-01-25 01:23:00,
2013-01-24 19:28:00,65.5,57.4,30.28,WSW,255,7.0,11.0,75,0.00,,,0.00,meteohub,2013-01-25 01:28:00,
2013-01-24 19:33:00,65.3,57.2,30.28,WSW,247,8.0,11.0,75,0.00,,,0.00,meteohub,2013-01-25 01:33:00,
2013-01-24 19:38:00,65.1,57.4,30.28,WSW,252,7.0,11.0,76,0.00,,,0.00,meteohub,2013-01-25 01:38:00,
2013-01-24 19:43:00,64.9,57.2,30.28,WSW,251,8.0,11.0,76,0.00,,,0.00,meteohub,2013-01-25 01:43:00,
2013-01-24 19:48:00,64.9,57.2,30.28,WSW,237,8.0,11.0,76,0.00,,,0.00,meteohub,2013-01-25 01:48:00,
2013-01-24 19:53:00,64.9,57.2,30.28,WSW,252,7.0,11.0,76,0.00,,,0.00,meteohub,2013-01-25 01:53:00,
2013-01-24 19:58:00,64.8,57.4,30.28,WSW,252,4.0,11.0,77,0.00,,,0.00,meteohub,2013-01-25 01:58:00,
2013-01-24 20:03:00,64.6,57.2,30.28,WSW,250,6.0,11.0,77,0.00,,,0.00,meteohub,2013-01-25 02:03:00,
2013-01-24 20:08:00,64.0,56.7,30.28,WSW,254,7.0,11.0,77,0.00,,,0.00,meteohub,2013-01-25 02:08:00,
2013-01-24 20:13:00,63.9,56.8,30.28,WSW,255,4.0,9.0,78,0.00,,,0.00,meteohub,2013-01-25 02:13:00,
2013-01-24 20:18:00,63.9,57.2,30.28,WSW,251,0.0,9.0,79,0.00,,,0.00,meteohub,2013-01-25 02:18:00,
2013-01-24 20:23:00,64.2,57.6,30.28,SSW,198,1.0,8.0,79,0.00,,,0.00,meteohub,2013-01-25 02:23:00,
2013-01-24 20:28:00,64.6,57.9,30.28,SW,231,4.0,8.0,79,0.00,,,0.00,meteohub,2013-01-25 02:28:00,
2013-01-24 20:33:00,64.8,57.7,30.28,SW,236,7.0,8.0,78,0.00,,,0.00,meteohub,2013-01-25 02:33:00,
2013-01-24 20:39:00,64.6,57.6,30.28,SSW,209,6.0,9.0,78,0.00,,,0.00,meteohub,2013-01-25 02:39:00,
2013-01-24 20:44:00,64.2,57.2,30.28,SSE,167,10.0,10.0,78,0.00,,,0.00,meteohub,2013-01-25 02:44:00,
2013-01-24 20:49:00,64.0,57.0,30.28,South,177,10.0,10.0,78,0.00,,,0.00,meteohub,2013-01-25 02:49:00,
2013-01-24 20:54:00,64.0,57.4,30.28,South,180,6.0,12.0,79,0.00,,,0.00,meteohub,2013-01-25 02:54:00,
2013-01-24 20:59:00,63.9,57.2,30.28,SSE,167,6.0,12.0,79,0.00,,,0.00,meteohub,2013-01-25 02:59:00,
2013-01-24 21:04:00,63.7,57.0,30.27,South,173,5.0,12.0,79,0.00,,,0.00,meteohub,2013-01-25 03:04:00,
2013-01-24 21:09:00,63.5,57.2,30.28,South,188,11.0,12.0,80,0.00,,,0.00,meteohub,2013-01-25 03:09:00,
2013-01-24 21:14:00,63.5,56.8,30.28,South,176,4.0,12.0,79,0.00,,,0.00,meteohub,2013-01-25 03:14:00,
2013-01-24 21:19:00,63.0,56.7,30.28,SSW,194,1.0,12.0,80,0.00,,,0.00,meteohub,2013-01-25 03:19:00,
2013-01-24 21:24:00,62.8,57.2,30.28,SSW,194,1.0,12.0,82,0.00,,,0.00,meteohub,2013-01-25 03:24:00,
2013-01-24 21:29:00,62.4,56.8,30.28,SSE,164,1.0,12.0,82,0.00,,,0.00,meteohub,2013-01-25 03:29:00,
2013-01-24 21:34:00,62.2,56.7,30.27,SSE,163,0.0,7.0,82,0.00,,,0.00,meteohub,2013-01-25 03:34:00,
2013-01-24 21:39:00,62.2,57.0,30.27,South,182,6.0,6.0,83,0.00,,,0.00,meteohub,2013-01-25 03:39:00,
2013-01-24 21:44:00,62.2,56.7,30.27,SSW,198,9.0,9.0,82,0.00,,,0.00,meteohub,2013-01-25 03:44:00,
2013-01-24 21:49:00,62.2,56.7,30.27,SW,220,11.0,12.0,82,0.00,,,0.00,meteohub,2013-01-25 03:49:00,
2013-01-24 21:54:00,62.2,56.7,30.27,South,186,6.0,16.0,82,0.00,,,0.00,meteohub,2013-01-25 03:54:00,
2013-01-24 21:59:00,61.9,56.3,30.28,South,188,7.0,16.0,82,0.00,,,0.00,meteohub,2013-01-25 03:59:00,
2013-01-24 22:04:00,61.9,56.3,30.27,South,182,5.0,16.0,82,0.00,,,0.00,meteohub,2013-01-25 04:04:00,
2013-01-24 22:09:00,61.7,56.5,30.27,South,190,5.0,13.0,83,0.00,,,0.00,meteohub,2013-01-25 04:09:00,
2013-01-24 22:14:00,61.9,56.7,30.27,South,177,4.0,13.0,83,0.00,,,0.00,meteohub,2013-01-25 04:14:00,
2013-01-24 22:19:00,61.5,56.3,30.27,South,186,1.0,14.0,83,0.00,,,0.00,meteohub,2013-01-25 04:19:00,
2013-01-24 22:24:00,61.2,56.3,30.27,SSE,157,3.0,14.0,84,0.00,,,0.00,meteohub,2013-01-25 04:24:00,
2013-01-24 22:30:00,61.0,56.1,30.27,SE,146,2.0,14.0,84,0.00,,,0.00,meteohub,2013-01-25 04:30:00,
2013-01-24 22:35:00,61.0,56.1,30.27,SSW,195,0.0,12.0,84,0.00,,,0.00,meteohub,2013-01-25 04:35:00,
2013-01-24 22:40:00,61.0,56.5,30.27,South,171,1.0,7.0,85,0.00,,,0.00,meteohub,2013-01-25 04:40:00,
2013-01-24 22:45:00,60.8,56.3,30.27,South,175,1.0,7.0,85,0.00,,,0.00,meteohub,2013-01-25 04:45:00,
2013-01-24 22:50:00,60.6,56.1,30.27,South,173,3.0,5.0,85,0.00,,,0.00,meteohub,2013-01-25 04:50:00,
2013-01-24 22:55:00,60.4,55.9,30.27,South,173,1.0,5.0,85,0.00,,,0.00,meteohub,2013-01-25 04:55:00,
2013-01-24 23:00:00,60.4,56.3,30.27,South,173,2.0,5.0,86,0.00,,,0.00,meteohub,2013-01-25 05:00:00,
2013-01-24 23:01:00,60.4,56.3,30.27,South,173,0.0,5.0,86,0.00,,,0.00,meteohub,2013-01-25 05:01:00,
2013-01-24 23:03:00,60.3,56.1,30.27,South,173,0.0,4.0,86,0.00,,,0.00,meteohub,2013-01-25 05:03:00,
2013-01-24 23:08:00,60.3,56.1,30.27,SSW,207,4.0,4.0,86,0.00,,,0.00,meteohub,2013-01-25 05:08:00,
2013-01-24 23:13:00,60.3,56.3,30.27,South,191,6.0,7.0,87,0.00,,,0.00,meteohub,2013-01-25 05:13:00,
2013-01-24 23:18:00,60.1,55.9,30.27,SSW,194,7.0,8.0,86,0.00,,,0.00,meteohub,2013-01-25 05:18:00,
2013-01-24 23:23:00,60.1,56.1,30.27,SSW,202,7.0,9.0,87,0.00,,,0.00,meteohub,2013-01-25 05:23:00,
2013-01-24 23:28:00,60.1,56.1,30.26,South,188,5.0,9.0,87,0.00,,,0.00,meteohub,2013-01-25 05:28:00,
2013-01-24 23:33:00,59.9,55.9,30.26,South,183,5.0,9.0,87,0.00,,,0.00,meteohub,2013-01-25 05:33:00,
2013-01-24 23:38:00,59.7,55.8,30.26,South,188,6.0,12.0,87,0.00,,,0.00,meteohub,2013-01-25 05:38:00,
2013-01-24 23:43:00,59.7,55.8,30.26,SSE,167,3.0,12.0,87,0.00,,,0.00,meteohub,2013-01-25 05:43:00,
2013-01-24 23:48:00,59.5,55.9,30.26,SE,145,4.0,12.0,88,0.00,,,0.00,meteohub,2013-01-25 05:48:00,
2013-01-24 23:53:00,59.5,55.9,30.26,SSE,165,2.0,7.0,88,0.00,,,0.00,meteohub,2013-01-25 05:53:00,
2013-01-24 23:58:00,59.5,55.9,30.26,SSE,147,4.0,7.0,88,0.00,,,0.00,meteohub,2013-01-25 05:58:00,